C/2002 VQ94 ( LINEAR )

Japanese version
Home page
Updated on September 2, 2011

---------------------------------------------------------------------

* Profile

Discovery Date November 11, 2002
Magnitude 18.7 mag
Discoverer Lincoln Laboratory Near-Earth Asteroid Research project

* Pictures

* Orbital Elements

The following orbital elements are taken from MPC 75007:

Epoch 2006 Jan. 25.0 TT = JDT 2453760.5
T 2006 Feb. 6.6486 TT                                   MPC
q   6.796646             (2000.0)            P               Q
z  +0.004869       Peri.  100.0369      -0.3311993      -0.7730956
 +/-0.000000       Node    35.0166      -0.2142177      -0.4967315
e   0.966907       Incl.   70.5157      +0.9189221      -0.3944376
From 1273 observations 2001 Oct. 27-2011 May 7, mean residual 0".5.

* Finding Charts

* Magnitudes Graph

        m1 = 6.0 + 5 log d + 7.5 log r(t - 330)

---------------------------------------------------------------------

The orbital elements are published at the MPC Ephemerides and Orbital Elements.
The charts are made with StellaNavigator Ver.2.0 for Windows (AstroArts / ASCII).
The magnitudes graphs are made with Comet for Windows.

---------------------------------------------------------------------

Copyright(C) Seiichi Yoshida (comet@aerith.net). All rights reserved.